• In Deutschland
  • Länderverzeichnis
  • Für 7 Tage
  • Wassertemperatur
  • Satellitenkarten
  • Wetterkarte
  • Widgets
  • user-avatar
    Anmelden

    Stündliche Wetter Aran

    Heute, 22 Juli, Sonntag

    Zeit Temperatur Niederschläge Wind Luftdruck Luftfeuchtigkeit
    00:00 +29°C° 1 mm 3 m/S 752 mmHg 61%
    01:00 +29°C° 0,2 mm 2 m/S 752 mmHg 62%
    02:00 +28°C° 0,2 mm 2 m/S 752 mmHg 63%
    03:00 +28°C° 0,2 mm 2 m/S 752 mmHg 64%
    04:00 +28°C° 0,2 mm 1 m/S 752 mmHg 64%
    05:00 +28°C° 0,2 mm 1 m/S 753 mmHg 64%
    06:00 +28°C° 0,2 mm 1 m/S 753 mmHg 64%
    07:00 +28°C° 0,2 mm 1 m/S 753 mmHg 64%
    08:00 +28°C° 0,2 mm 2 m/S 753 mmHg 64%
    09:00 +29°C° 0,2 mm 2 m/S 752 mmHg 64%
    10:00 +29°C° 0,1 mm 2 m/S 752 mmHg 61%
    11:00 +30°C° 0,1 mm 2 m/S 752 mmHg 58%
    12:00 +31°C° 0,1 mm 3 m/S 751 mmHg 56%
    13:00 +32°C° 0 mm 2 m/S 751 mmHg 51%
    14:00 +34°C° 0 mm 2 m/S 751 mmHg 46%
    15:00 +35°C° 0 mm 2 m/S 750 mmHg 41%
    16:00 +35°C° 0 mm 2 m/S 750 mmHg 40%
    17:00 +36°C° 0 mm 2 m/S 750 mmHg 39%
    18:00 +36°C° 0 mm 2 m/S 750 mmHg 38%
    19:00 +34°C° 0,1 mm 3 m/S 751 mmHg 41%
    20:00 +33°C° 0,1 mm 3 m/S 751 mmHg 43%
    21:00 +31°C° 0,1 mm 3 m/S 751 mmHg 46%
    22:00 +30°C° 0,1 mm 3 m/S 751 mmHg 49%
    23:00 +29°C° 0,1 mm 2 m/S 752 mmHg 52%

    Morgen, 23 Juli, Montag

    Zeit Temperatur Niederschläge Wind Luftdruck Luftfeuchtigkeit
    00:00 +28°C° 0,1 mm 2 m/S 752 mmHg 55%
    01:00 +28°C° 0,1 mm 1 m/S 752 mmHg 57%
    02:00 +27°C° 0,1 mm 1 m/S 751 mmHg 59%
    03:00 +27°C° 0,1 mm 1 m/S 751 mmHg 61%
    04:00 +27°C° 0 mm 1 m/S 751 mmHg 60%
    05:00 +28°C° 0 mm 1 m/S 751 mmHg 58%
    06:00 +28°C° 0 mm 1 m/S 751 mmHg 57%
    07:00 +29°C° 0 mm 2 m/S 751 mmHg 53%
    08:00 +31°C° 0 mm 2 m/S 751 mmHg 49%
    09:00 +32°C° 0 mm 2 m/S 751 mmHg 46%
    10:00 +34°C° 0,1 mm 2 m/S 750 mmHg 43%
    11:00 +35°C° 0,1 mm 2 m/S 750 mmHg 40%
    12:00 +36°C° 0,1 mm 2 m/S 749 mmHg 38%
    13:00 +37°C° 0 mm 2 m/S 749 mmHg 36%
    14:00 +37°C° 0 mm 2 m/S 748 mmHg 34%
    15:00 +38°C° 0 mm 2 m/S 748 mmHg 32%
    16:00 +38°C° 0 mm 2 m/S 748 mmHg 32%
    17:00 +38°C° 0 mm 2 m/S 748 mmHg 32%
    18:00 +38°C° 0 mm 2 m/S 748 mmHg 32%
    19:00 +36°C° 0,4 mm 2 m/S 748 mmHg 35%
    20:00 +34°C° 0,4 mm 2 m/S 749 mmHg 38%
    21:00 +31°C° 0,4 mm 3 m/S 750 mmHg 41%
    22:00 +30°C° 0,6 mm 2 m/S 750 mmHg 45%
    23:00 +29°C° 0,6 mm 2 m/S 750 mmHg 49%

    übermorgen, 24 Juli, Dienstag

    Zeit Temperatur Niederschläge Wind Luftdruck Luftfeuchtigkeit
    00:00 +28°C° 0,6 mm 2 m/S 750 mmHg 53%
    01:00 +28°C° 0 mm 2 m/S 750 mmHg 54%
    02:00 +28°C° 0 mm 2 m/S 750 mmHg 55%
    03:00 +28°C° 0 mm 2 m/S 750 mmHg 56%
    04:00 +28°C° 0 mm 3 m/S 750 mmHg 55%
    05:00 +28°C° 0 mm 3 m/S 750 mmHg 55%
    06:00 +29°C° 0 mm 4 m/S 750 mmHg 54%
    07:00 +30°C° 0 mm 4 m/S 750 mmHg 49%
    08:00 +33°C° 0 mm 4 m/S 750 mmHg 45%
    09:00 +34°C° 0 mm 4 m/S 750 mmHg 40%
    10:00 +36°C° 0 mm 4 m/S 749 mmHg 38%
    11:00 +37°C° 0 mm 3 m/S 749 mmHg 35%
    12:00 +38°C° 0 mm 3 m/S 749 mmHg 32%
    13:00 +38°C° 0 mm 2 m/S 749 mmHg 31%
    14:00 +39°C° 0 mm 2 m/S 748 mmHg 30%
    15:00 +40°C° 0 mm 2 m/S 748 mmHg 28%
    16:00 +40°C° 0 mm 1 m/S 748 mmHg 29%
    17:00 +39°C° 0 mm 1 m/S 749 mmHg 29%
    18:00 +39°C° 0 mm 1 m/S 749 mmHg 29%
    19:00 +38°C° 0 mm 2 m/S 750 mmHg 31%
    20:00 +36°C° 0 mm 2 m/S 750 mmHg 32%
    21:00 +34°C° 0 mm 2 m/S 751 mmHg 34%
    22:00 +34°C° 0 mm 2 m/S 751 mmHg 35%
    23:00 +32°C° 0 mm 2 m/S 751 mmHg 36%

    25 Juli, Mittwoch

    Zeit Temperatur Niederschläge Wind Luftdruck Luftfeuchtigkeit
    00:00 +31°C° 0 mm 2 m/S 751 mmHg 38%
    01:00 +31°C° 0 mm 2 m/S 751 mmHg 39%
    02:00 +31°C° 0 mm 2 m/S 751 mmHg 41%
    03:00 +30°C° 0 mm 1 m/S 751 mmHg 42%
    04:00 +31°C° 0 mm 1 m/S 751 mmHg 42%
    05:00 +31°C° 0 mm 1 m/S 751 mmHg 42%
    06:00 +31°C° 0 mm 1 m/S 751 mmHg 43%
    07:00 +33°C° 0 mm 1 m/S 751 mmHg 40%
    08:00 +34°C° 0 mm 1 m/S 751 mmHg 37%
    09:00 +37°C° 0 mm 2 m/S 751 mmHg 34%
    10:00 +38°C° 0 mm 2 m/S 750 mmHg 32%
    11:00 +39°C° 0 mm 2 m/S 750 mmHg 30%
    12:00 +40°C° 0 mm 2 m/S 749 mmHg 28%
    13:00 +41°C° 0 mm 2 m/S 749 mmHg 27%
    14:00 +42°C° 0 mm 2 m/S 749 mmHg 26%
    15:00 +44°C° 0 mm 3 m/S 748 mmHg 25%
    16:00 +44°C° 0 mm 3 m/S 748 mmHg 25%
    17:00 +44°C° 0 mm 3 m/S 748 mmHg 25%
    18:00 +43°C° 0 mm 4 m/S 748 mmHg 25%
    19:00 +41°C° 0 mm 4 m/S 749 mmHg 28%
    20:00 +40°C° 0 mm 4 m/S 750 mmHg 31%
    21:00 +37°C° 0 mm 5 m/S 750 mmHg 34%
    22:00 +36°C° 0 mm 4 m/S 750 mmHg 36%
    23:00 +35°C° 0 mm 4 m/S 750 mmHg 39%

    26 Juli, Donnerstag

    Zeit Temperatur Niederschläge Wind Luftdruck Luftfeuchtigkeit
    00:00 +34°C° 0 mm 3 m/S 750 mmHg 41%
    01:00 +33°C° 0 mm 3 m/S 750 mmHg 43%
    02:00 +32°C° 0 mm 2 m/S 750 mmHg 44%
    03:00 +31°C° 0 mm 2 m/S 750 mmHg 46%
    04:00 +31°C° 0 mm 1 m/S 751 mmHg 46%
    05:00 +32°C° 0 mm 1 m/S 751 mmHg 46%
    06:00 +32°C° 0 mm 1 m/S 751 mmHg 46%
    07:00 +33°C° 0 mm 1 m/S 751 mmHg 43%
    08:00 +35°C° 0 mm 1 m/S 751 mmHg 41%
    09:00 +37°C° 0 mm 2 m/S 751 mmHg 38%
    10:00 +38°C° 0 mm 3 m/S 750 mmHg 35%
    11:00 +40°C° 0 mm 3 m/S 750 mmHg 32%
    12:00 +42°C° 0 mm 4 m/S 750 mmHg 30%
    13:00 +43°C° 0 mm 4 m/S 750 mmHg 28%
    14:00 +45°C° 0 mm 5 m/S 749 mmHg 26%
    15:00 +46°C° 0 mm 6 m/S 749 mmHg 24%
    16:00 +45°C° 0 mm 6 m/S 749 mmHg 24%
    17:00 +44°C° 0 mm 7 m/S 749 mmHg 25%
    18:00 +44°C° 0 mm 7 m/S 750 mmHg 25%
    19:00 +41°C° 0,1 mm 6 m/S 750 mmHg 26%
    20:00 +37°C° 0,1 mm 5 m/S 751 mmHg 28%
    21:00 +35°C° 0,1 mm 4 m/S 751 mmHg 29%
    22:00 +35°C° 0,1 mm 4 m/S 751 mmHg 31%
    23:00 +34°C° 0,1 mm 3 m/S 751 mmHg 33%

    27 Juli, Freitag

    Zeit Temperatur Niederschläge Wind Luftdruck Luftfeuchtigkeit
    00:00 +32°C° 0,1 mm 2 m/S 752 mmHg 35%
    01:00 +32°C° 0 mm 2 m/S 752 mmHg 35%
    02:00 +31°C° 0 mm 2 m/S 752 mmHg 36%
    03:00 +31°C° 0 mm 2 m/S 752 mmHg 36%
    04:00 +31°C° 0 mm 1 m/S 752 mmHg 35%
    05:00 +32°C° 0 mm 1 m/S 752 mmHg 35%
    06:00 +32°C° 0 mm 1 m/S 753 mmHg 34%
    07:00 +35°C° 0 mm 2 m/S 753 mmHg 31%
    08:00 +37°C° 0 mm 3 m/S 752 mmHg 27%
    09:00 +40°C° 0 mm 4 m/S 752 mmHg 23%
    10:00 +41°C° 0 mm 5 m/S 752 mmHg 22%
    11:00 +42°C° 0 mm 6 m/S 752 mmHg 21%
    12:00 +44°C° 0 mm 7 m/S 751 mmHg 19%
    13:00 +45°C° 0 mm 7 m/S 751 mmHg 18%
    14:00 +45°C° 0 mm 8 m/S 750 mmHg 18%
    15:00 +45°C° 0 mm 8 m/S 750 mmHg 17%
    16:00 +44°C° 0 mm 8 m/S 750 mmHg 18%
    17:00 +43°C° 0 mm 8 m/S 750 mmHg 18%
    18:00 +41°C° 0 mm 8 m/S 751 mmHg 19%
    19:00 +39°C° 0 mm 7 m/S 751 mmHg 20%
    20:00 +36°C° 0 mm 6 m/S 751 mmHg 22%
    21:00 +34°C° 0 mm 5 m/S 752 mmHg 24%
    22:00 +33°C° 0 mm 4 m/S 752 mmHg 25%
    23:00 +31°C° 0 mm 3 m/S 752 mmHg 27%
    Mehr zeigen